EZY51UA EGNS-EGGD

Flight info

Callsign EZY51UA
Flight time 0h 40m
Altitude 25000
Route TIMIS Q39 NOMSU Q4 WAL N862 WEVBE
Aircraft A320/M-SDE2E3FGHIRWXY/LB1

Departure

Time 2026-04-16 20:50
Airport Isle of Man Airport (EGNS)

Arrival

Time 2026-04-16 21:30
Airport Bristol Airport (EGGD)
Time Latitude Longitude Altitude Speed Heading
2026-04-16 20:34 54.08567 -4.63264 61 ft 0 kts 43°
2026-04-16 20:40 54.08557 -4.63279 61 ft 2 kts 43°
2026-04-16 20:40 54.08546 -4.63296 61 ft 2 kts 43°
2026-04-16 20:41 54.08535 -4.63314 61 ft 2 kts 65°
2026-04-16 20:41 54.08533 -4.63339 61 ft 2 kts 101°
2026-04-16 20:41 54.08538 -4.63358 62 ft 0 kts 129°
2026-04-16 20:41 54.08543 -4.63366 62 ft 1 kts 134°
2026-04-16 20:42 54.08543 -4.63368 62 ft 0 kts 134°
2026-04-16 20:43 54.08541 -4.63363 62 ft 1 kts 134°
2026-04-16 20:44 54.08522 -4.63338 61 ft 5 kts 160°
2026-04-16 20:44 54.08471 -4.63353 59 ft 9 kts 177°
2026-04-16 20:44 54.08425 -4.63255 55 ft 13 kts 115°
2026-04-16 20:44 54.08400 -4.63086 51 ft 16 kts 79°
2026-04-16 20:45 54.08427 -4.62899 52 ft 16 kts 77°
2026-04-16 20:45 54.08450 -4.62696 48 ft 18 kts 79°
2026-04-16 20:45 54.08478 -4.62475 49 ft 18 kts 77°
2026-04-16 20:45 54.08507 -4.62248 47 ft 19 kts 77°
2026-04-16 20:46 54.08534 -4.62014 45 ft 21 kts 80°
2026-04-16 20:46 54.08564 -4.61775 46 ft 20 kts 76°
2026-04-16 20:46 54.08594 -4.61550 49 ft 18 kts 77°
2026-04-16 20:46 54.08619 -4.61336 50 ft 18 kts 78°
2026-04-16 20:47 54.08649 -4.61117 47 ft 20 kts 77°
2026-04-16 20:47 54.08670 -4.60912 38 ft 14 kts 89°
2026-04-16 20:47 54.08615 -4.60788 29 ft 13 kts 152°
2026-04-16 20:47 54.08527 -4.60797 26 ft 10 kts 240°
2026-04-16 20:48 54.08526 -4.60803 27 ft 0 kts 253°
2026-04-16 20:48 54.08527 -4.60798 26 ft 0 kts 253°
2026-04-16 20:48 54.08528 -4.60790 26 ft 0 kts 253°
2026-04-16 20:49 54.08528 -4.60789 26 ft 0 kts 253°
2026-04-16 20:49 54.08517 -4.60861 28 ft 30 kts 256°
2026-04-16 20:49 54.08422 -4.61628 40 ft 100 kts 257°
2026-04-16 20:49 54.08232 -4.63125 55 ft 156 kts 257°
2026-04-16 20:50 54.07965 -4.65048 398 ft 176 kts 250°
2026-04-16 20:50 54.07549 -4.67103 879 ft 193 kts 236°
2026-04-16 20:50 54.06655 -4.68830 1587 ft 200 kts 215°
2026-04-16 20:50 54.05567 -4.70193 2479 ft 196 kts 206°
2026-04-16 20:51 54.04189 -4.70534 2882 ft 218 kts 169°
2026-04-16 20:51 54.02855 -4.69036 3326 ft 251 kts 132°
2026-04-16 20:51 54.02074 -4.66328 4055 ft 263 kts 119°
2026-04-16 20:51 54.01124 -4.63769 4807 ft 253 kts 146°
2026-04-16 20:52 53.99606 -4.62391 5582 ft 248 kts 164°
2026-04-16 20:52 53.97977 -4.61496 6324 ft 252 kts 166°
2026-04-16 20:52 53.96307 -4.60555 7076 ft 258 kts 161°
2026-04-16 20:52 53.94769 -4.58878 7816 ft 271 kts 141°
2026-04-16 20:53 53.93567 -4.56407 8585 ft 279 kts 130°
2026-04-16 20:53 53.92462 -4.53691 9366 ft 283 kts 128°
2026-04-16 20:53 53.91358 -4.50926 10132 ft 287 kts 128°
2026-04-16 20:53 53.90234 -4.48127 10700 ft 298 kts 128°
2026-04-16 20:54 53.89026 -4.45146 11083 ft 316 kts 128°
2026-04-16 20:54 53.87738 -4.41978 11434 ft 333 kts 128°
2026-04-16 20:54 53.86428 -4.38757 12006 ft 341 kts 128°
2026-04-16 20:54 53.85075 -4.35434 12685 ft 344 kts 128°
2026-04-16 20:55 53.83720 -4.32109 13371 ft 347 kts 129°
2026-04-16 20:55 53.82350 -4.28760 13990 ft 351 kts 129°
2026-04-16 20:55 53.80949 -4.25335 14633 ft 355 kts 129°
2026-04-16 20:55 53.79550 -4.21917 15219 ft 359 kts 130°
2026-04-16 20:56 53.78120 -4.18438 15831 ft 362 kts 129°
2026-04-16 20:56 53.76681 -4.14934 16415 ft 366 kts 129°
2026-04-16 20:56 53.75227 -4.11404 17005 ft 368 kts 129°
2026-04-16 20:56 53.73771 -4.07874 17567 ft 371 kts 129°
2026-04-16 20:57 53.72305 -4.04318 18123 ft 374 kts 130°
2026-04-16 20:57 53.70819 -4.00728 18701 ft 375 kts 130°
2026-04-16 20:57 53.69323 -3.97111 19381 ft 374 kts 129°
2026-04-16 20:57 53.67864 -3.93594 20048 ft 372 kts 130°
2026-04-16 20:58 53.66375 -3.90011 20697 ft 371 kts 130°
2026-04-16 20:58 53.64902 -3.86470 21308 ft 370 kts 130°
2026-04-16 20:58 53.63433 -3.82941 21928 ft 370 kts 130°
2026-04-16 20:58 53.61974 -3.79443 22531 ft 369 kts 130°
2026-04-16 20:59 53.60510 -3.75936 23127 ft 368 kts 130°
2026-04-16 20:59 53.59027 -3.72391 23693 ft 368 kts 130°
2026-04-16 20:59 53.57566 -3.68910 24204 ft 370 kts 130°
2026-04-16 20:59 53.56072 -3.65352 24678 ft 373 kts 131°
2026-04-16 21:00 53.54583 -3.61812 24998 ft 376 kts 131°
2026-04-16 21:00 53.53080 -3.58237 25026 ft 376 kts 131°
2026-04-16 21:00 53.51569 -3.54658 25021 ft 377 kts 131°
2026-04-16 21:00 53.50053 -3.51071 25028 ft 377 kts 131°
2026-04-16 21:01 53.48539 -3.47478 25031 ft 378 kts 130°
2026-04-16 21:01 53.47131 -3.43743 25034 ft 380 kts 125°
2026-04-16 21:01 53.45909 -3.39807 25044 ft 381 kts 121°
2026-04-16 21:01 53.44850 -3.35762 25041 ft 382 kts 118°
2026-04-16 21:02 53.43815 -3.31658 25041 ft 383 kts 119°
2026-04-16 21:02 53.42774 -3.27515 25046 ft 383 kts 119°
2026-04-16 21:02 53.41750 -3.23470 25047 ft 383 kts 119°
2026-04-16 21:03 53.39465 -3.15467 25049 ft 374 kts 134°
2026-04-16 21:03 53.37650 -3.12419 25060 ft 364 kts 151°
2026-04-16 21:03 53.35472 -3.10362 25070 ft 361 kts 161°
2026-04-16 21:03 53.33196 -3.08567 25066 ft 367 kts 161°
2026-04-16 21:04 53.30887 -3.06759 25069 ft 368 kts 161°
2026-04-16 21:04 53.28577 -3.04934 25071 ft 368 kts 161°
2026-04-16 21:04 53.26271 -3.03104 25069 ft 368 kts 161°
2026-04-16 21:04 53.23966 -3.01271 25070 ft 368 kts 161°
2026-04-16 21:05 53.21653 -2.99428 25071 ft 369 kts 161°
2026-04-16 21:05 53.19354 -2.97595 25071 ft 368 kts 161°
2026-04-16 21:05 53.17044 -2.95756 25070 ft 368 kts 161°
2026-04-16 21:05 53.14740 -2.93923 25074 ft 368 kts 161°
2026-04-16 21:06 53.12456 -2.92107 25066 ft 368 kts 161°
2026-04-16 21:06 53.10142 -2.90301 25070 ft 365 kts 165°
2026-04-16 21:06 53.07740 -2.89064 25069 ft 359 kts 174°
2026-04-16 21:06 53.05287 -2.88600 25076 ft 355 kts 184°
2026-04-16 21:07 53.02844 -2.88716 25078 ft 355 kts 187°
2026-04-16 21:07 53.00354 -2.88924 25077 ft 356 kts 187°
2026-04-16 21:07 52.97909 -2.89137 25072 ft 357 kts 188°
2026-04-16 21:07 52.95439 -2.89348 25072 ft 356 kts 188°
2026-04-16 21:08 52.92969 -2.89558 25080 ft 356 kts 188°
2026-04-16 21:08 52.90512 -2.89785 25078 ft 355 kts 189°
2026-04-16 21:08 52.88052 -2.90203 25079 ft 354 kts 192°
2026-04-16 21:08 52.85636 -2.90775 25080 ft 355 kts 192°
2026-04-16 21:09 52.83176 -2.91347 25081 ft 354 kts 192°
2026-04-16 21:09 52.80769 -2.91906 25079 ft 354 kts 193°
2026-04-16 21:09 52.78306 -2.92483 25078 ft 354 kts 193°
2026-04-16 21:09 52.75876 -2.93053 25082 ft 354 kts 193°
2026-04-16 21:10 52.73452 -2.93622 25079 ft 354 kts 192°
2026-04-16 21:10 52.71022 -2.94094 25079 ft 355 kts 190°
2026-04-16 21:10 52.68554 -2.94347 25075 ft 356 kts 188°
2026-04-16 21:10 52.66072 -2.94554 25080 ft 356 kts 188°
2026-04-16 21:11 52.63639 -2.94763 25078 ft 355 kts 188°
2026-04-16 21:11 52.61156 -2.94973 25078 ft 355 kts 188°
2026-04-16 21:11 52.58691 -2.95179 25076 ft 355 kts 188°
2026-04-16 21:11 52.56255 -2.95383 25056 ft 355 kts 188°
2026-04-16 21:12 52.53765 -2.95592 24728 ft 354 kts 188°
2026-04-16 21:12 52.51347 -2.95790 24334 ft 351 kts 188°
2026-04-16 21:12 52.48901 -2.95991 23810 ft 350 kts 188°
2026-04-16 21:12 52.46496 -2.96192 23259 ft 350 kts 188°
2026-04-16 21:13 52.44081 -2.96392 22691 ft 350 kts 188°
2026-04-16 21:13 52.41652 -2.96592 22092 ft 351 kts 188°
2026-04-16 21:13 52.39217 -2.96794 21481 ft 352 kts 187°
2026-04-16 21:13 52.36794 -2.96992 20861 ft 353 kts 187°
2026-04-16 21:14 52.34331 -2.97195 20309 ft 352 kts 187°
2026-04-16 21:14 52.31928 -2.97392 19841 ft 349 kts 187°
2026-04-16 21:14 52.29511 -2.97587 19369 ft 347 kts 187°
2026-04-16 21:14 52.27120 -2.97782 18898 ft 344 kts 186°
2026-04-16 21:15 52.24733 -2.97977 18429 ft 342 kts 186°
2026-04-16 21:15 52.22363 -2.98170 17963 ft 340 kts 186°
2026-04-16 21:15 52.20032 -2.98358 17504 ft 338 kts 186°
2026-04-16 21:15 52.17682 -2.98546 17038 ft 336 kts 186°
2026-04-16 21:16 52.15372 -2.98733 16577 ft 334 kts 186°
2026-04-16 21:16 52.13054 -2.98920 16114 ft 332 kts 186°
2026-04-16 21:16 52.10782 -2.99105 15930 ft 332 kts 186°
2026-04-16 21:16 52.08464 -2.99294 15953 ft 333 kts 186°
2026-04-16 21:17 52.06165 -2.99480 15975 ft 334 kts 186°
2026-04-16 21:17 52.03813 -2.99670 16000 ft 335 kts 186°
2026-04-16 21:17 52.01491 -2.99855 16020 ft 335 kts 186°
2026-04-16 21:17 51.99197 -3.00040 15978 ft 335 kts 186°
2026-04-16 21:18 51.96857 -3.00136 15458 ft 338 kts 181°
2026-04-16 21:18 51.94520 -2.99680 14956 ft 340 kts 172°
2026-04-16 21:18 51.92303 -2.98662 14859 ft 329 kts 165°
2026-04-16 21:18 51.90143 -2.97402 14334 ft 330 kts 164°
2026-04-16 21:19 51.87971 -2.96105 13593 ft 335 kts 164°
2026-04-16 21:19 51.85817 -2.94809 13257 ft 328 kts 164°
2026-04-16 21:19 51.83707 -2.93537 12925 ft 321 kts 164°
2026-04-16 21:19 51.81652 -2.92303 12594 ft 315 kts 164°
2026-04-16 21:20 51.79619 -2.91086 12239 ft 309 kts 164°
2026-04-16 21:20 51.77617 -2.89893 11874 ft 304 kts 164°
2026-04-16 21:20 51.75654 -2.88724 11521 ft 299 kts 164°
2026-04-16 21:20 51.73721 -2.87573 11175 ft 295 kts 164°
2026-04-16 21:21 51.71839 -2.86372 10771 ft 287 kts 159°
2026-04-16 21:21 51.70144 -2.84783 10230 ft 286 kts 142°
2026-04-16 21:21 51.68843 -2.82348 9820 ft 289 kts 130°
2026-04-16 21:21 51.67716 -2.79725 9510 ft 285 kts 128°
2026-04-16 21:22 51.66624 -2.77083 9146 ft 284 kts 128°
2026-04-16 21:22 51.65544 -2.74451 8801 ft 281 kts 128°
2026-04-16 21:22 51.64467 -2.71823 8439 ft 280 kts 128°
2026-04-16 21:22 51.63391 -2.69207 8084 ft 278 kts 128°
2026-04-16 21:23 51.62324 -2.66619 7735 ft 276 kts 128°
2026-04-16 21:23 51.61247 -2.64124 7380 ft 271 kts 136°
2026-04-16 21:23 51.59769 -2.62365 6841 ft 261 kts 159°
2026-04-16 21:23 51.58095 -2.61311 6278 ft 254 kts 162°
2026-04-16 21:24 51.56493 -2.60244 5720 ft 249 kts 160°
2026-04-16 21:24 51.54934 -2.59160 5161 ft 243 kts 160°
2026-04-16 21:24 51.53400 -2.58078 4573 ft 240 kts 160°
2026-04-16 21:24 51.51880 -2.57076 3938 ft 237 kts 166°
2026-04-16 21:25 51.50315 -2.56373 3423 ft 232 kts 169°
2026-04-16 21:25 51.48733 -2.55758 2948 ft 235 kts 169°
2026-04-16 21:25 51.47174 -2.55034 2562 ft 231 kts 166°
2026-04-16 21:25 51.45694 -2.54252 2483 ft 221 kts 165°
2026-04-16 21:26 51.44250 -2.53467 2472 ft 215 kts 165°
2026-04-16 21:26 51.42906 -2.52726 2461 ft 194 kts 165°
2026-04-16 21:26 51.41660 -2.52041 2467 ft 185 kts 168°
2026-04-16 21:26 51.40425 -2.52060 2520 ft 178 kts 202°
2026-04-16 21:27 51.39560 -2.53286 2520 ft 163 kts 234°
2026-04-16 21:27 51.39161 -2.54861 2487 ft 143 kts 250°
2026-04-16 21:27 51.38971 -2.56396 2382 ft 139 kts 255°
2026-04-16 21:27 51.38849 -2.57900 2192 ft 134 kts 257°
2026-04-16 21:28 51.38774 -2.59330 1998 ft 125 kts 258°
2026-04-16 21:28 51.38715 -2.60718 1836 ft 125 kts 258°
2026-04-16 21:28 51.38659 -2.62114 1670 ft 126 kts 258°
2026-04-16 21:28 51.38605 -2.63523 1540 ft 130 kts 259°
2026-04-16 21:29 51.38564 -2.64967 1352 ft 129 kts 262°
2026-04-16 21:29 51.38504 -2.66366 1165 ft 127 kts 261°
2026-04-16 21:29 51.38440 -2.67811 984 ft 129 kts 260°
2026-04-16 21:29 51.38376 -2.69244 794 ft 131 kts 263°
2026-04-16 21:30 51.38318 -2.70709 645 ft 131 kts 262°
2026-04-16 21:30 51.38262 -2.72069 612 ft 95 kts 259°
2026-04-16 21:30 51.38229 -2.72725 620 ft 45 kts 266°
2026-04-16 21:30 51.38221 -2.73065 612 ft 15 kts 268°
2026-04-16 21:31 51.38214 -2.73266 603 ft 14 kts 275°
2026-04-16 21:31 51.38306 -2.73343 599 ft 16 kts
2026-04-16 21:31 51.38380 -2.73237 601 ft 14 kts 75°
2026-04-16 21:31 51.38389 -2.73095 607 ft 13 kts 86°
2026-04-16 21:32 51.38397 -2.72920 612 ft 20 kts 86°
2026-04-16 21:32 51.38405 -2.72698 616 ft 19 kts 86°
2026-04-16 21:32 51.38413 -2.72452 616 ft 26 kts 89°
2026-04-16 21:32 51.38424 -2.72181 611 ft 23 kts 85°
2026-04-16 21:33 51.38430 -2.71923 609 ft 23 kts 91°
2026-04-16 21:33 51.38437 -2.71645 604 ft 25 kts 86°
2026-04-16 21:33 51.38450 -2.71424 603 ft 11 kts 69°
2026-04-16 21:33 51.38470 -2.71396 603 ft 1 kts 39°
2026-04-16 21:34 51.38488 -2.71370 603 ft 4 kts 42°
2026-04-16 21:34 51.38512 -2.71347 602 ft 1 kts 356°
2026-04-16 21:34 51.38524 -2.71346 601 ft 0 kts